Regional Weather Roundup
Issued by NWS

Home | Current Version | Previous Version | Text Only | Print | Product List | Glossary Off
Versions: 1 2 3 4 5 6 7 8 9 10 11 12 13 14 15 16 17 18 19 20 21 22 23 24 25 26 27 28 29 30 31 32 33 34 35 36 37 38 39 40 41 42 43 44 45 46 47 48 49 50

000
ASUS43 KDTX 210601
RWRMI
MICHIGAN HOURLY REGIONAL WEATHER ROUNDUP
NATIONAL WEATHER SERVICE DETROIT/PONTIAC MI
200 AM EDT TUE OCT 21 2014

NOTE: "FAIR" INDICATES FEW OR NO CLOUDS BELOW 12,000 FEET WITH NO
SIGNIFICANT WEATHER AND/OR OBSTRUCTION TO VISIBILITY.

MIZ047>049-052>055-059>063-066>070-074>076-081>083-210700-
SOUTHEAST LOWER MICHIGAN

CITY           SKY/WX    TMP DP  RH WIND       PRES   REMARKS
ADRIAN         CLOUDY    49  44  83 N9        29.90R
6HR MIN TEMP:  49; 6HR MAX TEMP:  54; 6HR PCP: TRACE;

ALMA           CLOUDY    48  42  81 NW12      29.93R
ANN ARBOR      CLOUDY    49  42  77 N7        29.89R
BAD AXE        CLOUDY    47  46  97 NW10G17   29.88S
6HR MIN TEMP:  47; 6HR MAX TEMP:  50;

CARO           CLOUDY    48  44  84 CALM      29.88S
DETROIT CITY   PTCLDY    50  44  80 NW8       29.88R
6HR MIN TEMP:  50; 6HR MAX TEMP:  57; 6HR PCP:  0.01;

DETROIT        CLOUDY    49  44  83 NW9       29.89R
6HR MIN TEMP:  48; 6HR MAX TEMP:  54; 6HR PCP:  0.02;

FLINT          CLOUDY    49  44  83 NW8       29.90S
6HR MIN TEMP:  49; 6HR MAX TEMP:  54; 6HR PCP:  0.02;

GROSSE ILE     CLOUDY    48  45  87 NW7       29.87R
HILLSDALE      MOCLDY    48  45  88 NW9G16    29.90S
6HR MIN TEMP:  48; 6HR MAX TEMP:  54;

HOWELL         CLOUDY    47  43  85 NW7       29.89S

CITY           SKY/WX    TMP DP  RH WIND       PRES   REMARKS
JACKSON        CLOUDY    48  44  86 NW7       29.90S
6HR MIN TEMP:  48; 6HR MAX TEMP:  53;

LAMBERTVILLE   CLOUDY    50  45  81 NW6       29.89R
LANSING        CLOUDY    48  42  80 NW8       29.93R
6HR MIN TEMP:  48; 6HR MAX TEMP:  54;

LAPEER         CLOUDY    48  43  83 NW7       29.88S
MASON          CLOUDY    47  43  85 NW9       29.91S
MONROE         CLOUDY    48  46  93 NW7       29.87R
MT. CLEMENS    CLOUDY    49  48  98 NW7       29.85R
6HR MIN TEMP:  49; 6HR MAX TEMP:  55; 6HR PCP:  0.02;

PONTIAC        CLOUDY    47  43  86 NW8       29.87S
6HR MIN TEMP:  47; 6HR MAX TEMP:  53; 6HR PCP:  0.17;

PORT HOPE        N/A     49  47  93 VRB7      29.85S
6HR MIN TEMP:  48; 6HR MAX TEMP:  51; 6HR PCP:  0.10;

PORT HURON     CLOUDY    48  46  93 NW3       29.86S
TRI CITIES     CLOUDY    50  43  77 NW12G21   29.92R
6HR MIN TEMP:  50; 6HR MAX TEMP:  52;

TROY           CLOUDY    50  45  84 NW7       29.89S
SAGINAW HB     CLOUDY    50  43  76 NW10      29.90R
$$
MIZ043>046-050>051-056>058-064>065-071>073-077>080-210700-
SOUTHWEST LOWER MICHIGAN

CITY           SKY/WX    TMP DP  RH WIND       PRES   REMARKS
BATTLE CREEK   CLOUDY    47  41  80 NW8       29.94R
6HR MIN TEMP:  47; 6HR MAX TEMP:  54;

BENTON HARBOR  CLOUDY    48  45  89 NE3       29.97R
6HR MIN TEMP:  47; 6HR MAX TEMP:  52; 6HR PCP:  0.02;

BIG RAPIDS     CLOUDY    45  45 100 NW10      29.93F
6HR MIN TEMP:  45; 6HR MAX TEMP:  47;

COLDWATER      CLOUDY    48  44  84 NW7       29.92S
6HR MIN TEMP:  48; 6HR MAX TEMP:  55;

FREMONT        CLOUDY    46  42  88 N9        29.96S
HOLLAND        CLOUDY    49  42  77 NW9       29.98R
6HR MIN TEMP:  49; 6HR MAX TEMP:  53; 6HR PCP: TRACE;

GRAND RAPIDS   CLOUDY    48  42  80 N10       29.95R
6HR MIN TEMP:  48; 6HR MAX TEMP:  52;

IONIA          CLOUDY    48  42  80 N8        29.92S
KALAMAZOO      CLOUDY    47  42  83 NW10      29.94S
6HR MIN TEMP:  47; 6HR MAX TEMP:  53;

LUDINGTON      CLOUDY    46  44  91 N12       29.99S
MARSHALL       CLOUDY    47  41  80 NW7       29.92R
MOUNT PLEASANT CLOUDY    47  42  84 NW6       29.92S
6HR MIN TEMP:  47; 6HR MAX TEMP:  49;

MUSKEGON       CLOUDY    48  41  76 N13       29.98S
6HR MIN TEMP:  48; 6HR MAX TEMP:  50; 6HR PCP:  0.01;

SOUTH HAVEN    CLOUDY    48  46  93 CALM      29.97S
$$
MIZ016>042-210700-
NORTHERN LOWER MICHIGAN

CITY           SKY/WX    TMP DP  RH WIND       PRES   REMARKS
ALPENA         CLOUDY    45  42  89 N10       29.92R
6HR MIN TEMP:  45; 6HR MAX TEMP:  47; 6HR PCP:  0.01;

BEAVER ISLAND  CLOUDY    46  41  82 N9        29.99R
6HR MIN TEMP:  46; 6HR MAX TEMP:  47;

BELLAIRE       CLOUDY    46  44  93 N3        29.95S
CADILLAC       CLOUDY    44  43  97 NW9       29.93S
CHARLEVOIX     CLOUDY    47  43  85 NE12      29.99R
6HR MIN TEMP:  47; 6HR MAX TEMP:  48;

FRANKFORT      CLOUDY    47  42  82 N9        29.98S
GAYLORD        CLOUDY    43  41  93 N8        29.93S
6HR MIN TEMP:  43; 6HR MAX TEMP:  45; 6HR PCP: TRACE;

GRAYLING       DRIZZLE   46  46  97 N6        29.93S
6HR MIN TEMP:  46; 6HR MAX TEMP:  49;

HARBOR SPRINGS CLOUDY    46  42  85 N9        29.96R
HOUGHTON LAKE  CLOUDY    45  42  89 N7        29.92S
6HR MIN TEMP:  44; 6HR MAX TEMP:  47;

MANISTEE       CLOUDY    46  41  81 N8        29.98S
OSCODA         LGT RAIN  46  45  97 N8        29.89S
PELLSTON       CLOUDY    45  40  82 N10       29.97R
6HR MIN TEMP:  45; 6HR MAX TEMP:  47; 6HR PCP: TRACE;

TRAVERSE CITY  CLOUDY    48  43  82 N10G18    29.94F
6HR MIN TEMP:  47; 6HR MAX TEMP:  48; 6HR PCP: TRACE;

$$
MIZ007>008-015-210700-
EASTERN UPPER MICHIGAN

CITY           SKY/WX    TMP DP  RH WIND       PRES   REMARKS
KINROSS        CLOUDY    43  39  87 N8        29.98R
6HR MIN TEMP:  43; 6HR MAX TEMP:  46;

MACKINAC ISLAN CLOUDY    44  37  77 N13       29.97S
6HR MIN TEMP:  44; 6HR MAX TEMP:  46; 6HR PCP:  0.01;

NEWBERRY       CLOUDY    41  39  92 N8        30.00S
S. S. MARIE    CLOUDY    43  35  73 NE6       29.99R
6HR MIN TEMP:  43; 6HR MAX TEMP:  48;

MUNISING         N/A     46  41  82 N20       30.05R
6HR MIN TEMP:  46; 6HR MAX TEMP:  47; 6HR PCP:  0.04;

$$
MIZ004>006-011>014-085-210700-
CENTRAL UPPER MICHIGAN

CITY           SKY/WX    TMP DP  RH WIND       PRES   REMARKS
MANISTIQUE     CLOUDY    43  41  93 N9        30.02R
ESCANABA       CLOUDY    43  37  81 NW8       30.04S
6HR MIN TEMP:  43; 6HR MAX TEMP:  45;

MENOMINEE      CLOUDY    45  36  70 N8        30.04R
6HR MIN TEMP:  45; 6HR MAX TEMP:  48;

SAWYER-GWINN   DRIZZLE   39  38  95 N15       30.06S WCI  31
6HR MIN TEMP:  39; 6HR MAX TEMP:  41; 6HR PCP:  0.01;

$$
MIZ001>003-009>011-084-210700-
WESTERN UPPER MICHIGAN

CITY           SKY/WX    TMP DP  RH WIND       PRES   REMARKS
IRON MOUNTAIN  CLOUDY    41  38  89 N8        30.06R
6HR MIN TEMP:  41; 6HR MAX TEMP:  45;

HOUGHTON       CLOUDY    39  32  76 NE12      30.11R WCI  32
6HR MIN TEMP:  39; 6HR MAX TEMP:  42;

COPPER HARBOR    N/A     42  35  76 VRB7G21   30.13R
6HR MIN TEMP:  42; 6HR MAX TEMP:  45;

IRONWOOD       CLOUDY    41  36  81 NE5       30.10S
6HR MIN TEMP:  41; 6HR MAX TEMP:  45;

$$

ABBREVIATIONS USED IN REMARKS
   TC - TEMPERATURE IN CELSIUS
  WCI - WIND CHILL INDEX
   HX - HEAT INDEX
  VSB - VISIBILITY




USA.gov is the U.S. government's official web portal to all federal, state and local government web resources and services.